Dewpoint
67 61 60 60 52 41 39 42 38 36 35 35 36 35 35 34 36 39 48 48 48 44 39 47 53 53 53 55 54 54 54 53 53 52 53 56 54 54 54 56 58 58 58 57 57 58 58 57 58
61 53 59 52 43 33 38 38 39 36 33 31 29 30 31 30 35 42 45 45 43 38 39 48 52 53 54 53 53 53 52 53 54 56 54 54 53 54 54 57 57 56 56 56 57 56 54 53 53
60 49 49 43 37 37 36 39 36 32 30 29 29 29 31 32 38 41 44 42 38 38 42 50 53 54 53 52 53 52 52 54 53 53 52 53 53 53 56 56 54 53 53 55 54 55 53 53 53
53 51 43 39 37 40 37 37 35 30 28 28 29 28 29 33 38 38 41 37 35 37 46 52 52 52 51 52 51 51 53 52 52 52 52 53 52 52 53 53 53 53 53 52 52 52 52 52 53
50 45 40 37 38 37 36 36 33 30 28 28 28 28 30 34 33 40 36 32 34 39 45 49 52 52 51 50 50 51 52 51 51 52 51 51 51 53 53 53 52 53 52 53 52 52 52 52 52
48 41 35 33 36 36 35 34 31 30 28 27 27 27 30 32 34 36 32 31 33 37 40 47 51 49 49 49 49 50 50 50 50 49 48 49 51 52 52 52 52 52 52 52 52 52 51 50 51
45 39 36 33 35 35 33 32 29 29 29 27 28 26 28 30 35 32 29 29 31 34 37 40 43 49 48 46 48 49 48 47 48 46 45 46 49 49 49 50 50 50 51 50 50 49 49 47 48
43 37 30 32 32 33 35 33 31 31 29 28 28 26 28 30 34 30 27 28 27 30 32 34 33 34 38 44 47 47 46 45 44 44 42 40 44 40 45 46 48 48 48 49 48 47 46 42 42
44 33 29 31 30 35 35 32 30 27 28 27 26 26 28 32 33 30 27 25 28 29 29 28 28 31 35 41 44 45 45 38 38 37 38 39 35 37 37 44 44 46 45 45 45 44 42 40 36
37 35 33 36 36 33 33 32 30 28 27 27 25 26 28 32 30 28 27 24 27 29 30 28 29 32 34 31 37 37 35 35 35 34 33 32 32 34 35 39 39 38 42 37 38 38 38 37 32
29 33 33 32 34 33 31 30 30 28 28 26 26 26 28 30 30 26 25 23 26 28 32 28 33 34 35 33 35 35 35 36 35 35 35 35 33 33 34 35 36 37 37 35 35 34 33 32 32
24 28 28 31 31 28 27 28 26 28 28 27 28 27 27 28 27 26 24 21 22 26 32 30 31 33 34 34 34 33 32 35 35 37 36 36 35 34 34 34 36 37 36 35 36 35 34 31 30
21 24 26 27 29 28 29 27 25 25 26 27 26 27 27 27 27 26 23 19 21 23 30 32 33 33 33 34 34 33 32 32 34 35 36 35 36 36 34 34 34 35 36 35 36 35 34 32 30
22 22 22 25 25 26 26 25 26 24 25 25 26 26 26 26 26 25 23 19 19 21 26 29 30 34 34 34 35 33 32 33 34 35 34 32 34 33 33 33 35 34 35 36 35 34 34 33 31
22 22 23 23 23 24 24 23 23 23 23 24 23 24 25 26 25 24 23 19 18 20 22 28 30 32 36 36 36 37 34 33 34 34 33 31 32 32 32 33 34 35 35 35 34 33 35 34 32
22 22 16 25 23 23 23 18 22 21 21 21 21 21 25 25 24 23 22 19 18 19 21 26 28 29 34 35 36 36 34 35 35 33 33 32 33 33 34 34 34 36 36 35 35 35 35 34 33
20 10 11 15 21 21 21 19 23 21 20 19 19 19 21 24 24 23 22 21 19 20 20 24 28 28 30 33 34 35 34 34 34 33 33 34 34 33 34 34 34 34 35 35 35 35 35 34 34
13 8 8 10 17 19 20 19 19 20 20 20 18 19 19 21 22 23 23 21 20 22 22 24 27 29 30 33 33 34 34 33 33 34 34 33 34 34 34 34 35 35 35 35 35 35 36 36 35
14 11 11 12 17 18 17 15 15 17 21 24 20 18 18 19 21 22 23 22 21 22 26 25 27 27 29 32 32 32 33 33 33 34 34 34 34 35 36 35 34 36 35 35 36 35 35 36 36
14 13 12 13 15 16 15 14 16 17 18 19 23 19 18 19 18 21 22 23 21 20 24 28 28 30 31 34 32 32 32 33 33 35 33 34 34 35 34 35 35 35 35 36 36 36 36 35 35
14 15 12 12 15 15 17 16 14 17 19 21 21 22 19 20 18 19 21 22 24 21 23 26 30 30 31 32 34 35 35 36 35 35 35 36 34 35 36 35 35 35 36 36 36 36 37 35 35
16 16 15 16 16 10 15 5 14 11 14 18 20 21 20 21 21 20 21 24 23 25 29 26 28 29 30 34 34 34 36 36 37 36 37 37 35 35 35 36 35 35 35 35 36 35 36 36 35
16 20 19 20 17 16 18 16 11 11 12 13 16 18 21 21 22 21 21 24 24 29 29 29 31 33 35 36 38 37 38 37 37 38 39 39 39 36 35 35 35 34 35 34 34 35 34 35 35
18 18 20 22 22 20 17 12 7 10 15 15 14 16 20 21 21 23 24 25 26 33 36 36 32 33 35 38 39 40 41 39 37 39 39 39 39 38 37 37 37 36 35 35 36 35 36 35 34
20 18 18 18 19 13 17 11 12 13 16 17 17 14 17 19 22 24 25 27 30 35 37 36 35 34 34 37 39 40 42 43 42 40 39 39 38 38 39 39 39 38 40 39 37 36 36 36 36
15 18 15 15 13 11 17 14 15 14 15 14 18 20 20 22 24 28 30 32 33 34 36 37 35 35 34 34 38 40 42 42 41 41 39 38 37 37 39 40 40 38 37 39 38 38 38 38 38
17 19 19 16 16 15 14 10 13 15 12 17 20 21 23 23 25 28 30 31 32 33 34 34 36 36 35 35 37 39 40 40 40 41 41 40 39 36 38 38 39 39 38 37 38 38 36 37 37
17 17 18 18 23 16 11 11 10 12 11 15 18 20 23 25 25 26 27 29 30 31 32 33 33 33 35 37 36 36 37 37 39 40 39 40 40 39 38 38 38 38 38 37 37 38 37 36 37
16 15 15 18 15 17 15 16 11 9 12 12 14 18 20 24 25 25 25 28 29 30 31 31 31 31 32 34 35 36 35 35 35 37 38 38 39 39 38 37 37 37 36 36 36 36 36 35 36
15 14 15 20 21 17 20 19 15 11 12 17 18 19 19 25 26 25 25 26 27 28 29 30 30 30 31 32 32 33 35 35 34 34 36 37 37 38 37 36 36 35 36 36 35 35 33 34 35
Lifted_Index
-3 -3 -3 -3 -2 -1 -0 1 2 4 5 6 6 7 7 7 7 8 10 11 12 13 14 13 12 12 12 12 12 12 13 13 12 12 12 11 11 11 10 10 9 10 10 11 11 12 13 14 14
-2 -1 -2 -2 -1 -1 0 1 3 4 5 6 7 7 8 8 9 9 10 12 13 14 14 13 12 12 12 12 12 12 12 12 12 12 12 12 11 11 10 9 9 10 10 11 11 12 13 14 14
-1 -0 -1 -1 -0 -0 1 2 3 5 7 8 8 9 9 10 10 11 12 13 14 14 14 12 12 11 11 12 12 12 12 12 11 12 12 12 11 11 10 10 10 10 10 10 11 11 12 13 13
-0 -0 0 0 0 1 2 3 4 6 8 9 9 9 10 11 12 12 13 14 15 14 13 12 11 11 11 12 12 12 12 12 12 12 12 12 11 11 11 11 11 11 11 11 11 11 12 12 12
0 0 0 0 0 1 3 4 5 7 8 9 9 10 11 12 13 14 15 15 15 14 12 11 11 12 12 12 12 12 12 12 12 12 13 12 12 11 11 11 11 11 11 11 11 11 12 12 12
-0 0 0 0 1 2 3 5 6 7 8 9 10 10 11 12 14 15 15 16 15 14 13 12 12 12 12 12 12 12 12 13 13 13 14 13 12 12 12 12 12 12 12 12 12 12 13 13 13
1 1 1 1 1 2 4 6 7 8 9 10 10 10 11 12 14 15 16 16 16 15 15 14 13 13 13 13 13 13 13 14 14 15 15 15 14 13 13 13 13 13 13 13 13 14 14 15 15
2 2 2 2 2 3 5 6 7 8 9 10 11 11 11 12 14 15 16 16 17 16 16 16 16 15 15 14 14 14 15 15 16 16 17 16 15 15 15 14 14 15 15 15 15 15 16 16 17
3 3 3 3 4 4 6 7 8 9 10 11 11 11 11 12 14 15 16 16 17 17 17 17 17 17 16 15 15 15 16 17 17 17 17 17 16 16 16 16 16 16 16 16 16 17 17 17 17
4 4 4 5 5 6 7 8 9 10 10 11 11 12 12 12 13 14 15 16 16 17 17 17 17 17 16 16 16 17 17 17 18 18 18 17 17 17 16 16 17 17 17 17 17 17 17 17 18
6 6 6 7 7 8 9 9 10 10 10 11 11 12 12 13 13 14 15 16 16 16 16 17 17 17 17 17 17 17 17 18 18 18 18 17 17 17 17 17 17 17 17 17 17 17 17 18 18
7 7 7 8 9 9 9 10 10 10 10 11 11 12 13 13 14 14 15 16 16 16 16 17 17 17 16 16 17 17 17 18 18 18 18 18 17 17 17 17 17 17 17 17 17 17 17 17 18
7 8 8 9 9 10 10 10 10 10 11 11 12 12 13 13 14 14 15 15 16 16 16 16 17 17 17 16 17 17 17 18 18 18 18 18 18 17 17 17 17 17 17 17 17 17 17 17 17
8 8 8 9 9 9 9 9 9 10 11 11 12 12 13 13 14 14 15 15 16 16 16 16 17 17 17 16 17 17 17 18 18 18 18 18 18 18 18 18 18 18 18 18 17 17 17 17 17
7 7 7 7 8 8 8 7 8 9 10 10 11 11 12 13 13 14 15 15 16 16 16 16 17 17 17 17 17 17 18 18 18 18 18 18 18 18 18 18 18 18 18 18 18 17 17 17 17
6 5 5 6 7 8 7 6 7 9 9 9 10 11 11 12 13 14 15 15 16 16 16 16 17 17 17 17 17 17 18 18 18 18 18 18 19 19 18 18 18 18 18 18 18 18 17 17 17
4 4 4 5 6 6 6 5 7 8 9 9 9 10 10 11 12 13 14 15 16 16 16 17 17 17 17 17 17 17 18 18 18 18 18 18 19 19 19 18 18 19 19 18 18 18 18 17 17
4 4 4 4 5 5 5 5 6 7 7 8 8 9 9 10 11 13 14 15 16 16 17 17 17 17 17 17 17 17 18 18 18 18 18 18 19 19 19 19 19 19 19 18 18 18 18 18 18
5 4 4 5 5 5 4 4 5 5 6 6 7 8 9 10 11 13 14 15 15 16 16 17 17 17 17 17 17 17 18 18 18 18 18 18 19 19 19 18 18 18 18 18 18 18 18 18 18
6 5 4 5 5 5 4 3 4 4 5 5 6 7 8 9 10 12 13 14 14 15 16 16 16 17 17 17 17 17 17 18 18 18 18 18 18 18 18 18 18 18 18 18 18 18 18 18 18
6 6 5 5 5 5 4 3 4 4 5 5 6 6 7 8 9 10 11 12 13 14 14 15 16 16 16 17 17 17 17 17 17 18 18 18 18 18 18 18 18 18 18 18 18 18 18 18 17
6 7 7 6 5 4 4 3 4 5 5 5 6 6 7 8 9 10 10 11 12 13 14 14 15 15 16 16 16 16 16 16 17 17 17 17 18 18 18 18 18 18 17 17 17 17 17 17 17
7 8 7 6 5 4 4 4 4 5 5 5 6 7 7 8 9 9 10 10 11 12 13 13 14 14 15 15 15 15 16 16 16 16 17 17 17 18 18 18 18 17 17 17 17 17 17 17 17
8 7 6 5 4 3 3 4 4 5 5 6 7 7 8 8 9 10 10 10 11 11 12 12 13 13 13 14 14 15 15 15 16 16 16 16 17 17 17 17 17 17 17 17 17 17 17 17 17
8 6 4 2 2 2 3 3 4 5 6 7 8 8 9 9 10 10 10 10 10 10 11 11 12 12 13 13 14 14 15 15 15 15 16 16 16 17 17 17 17 17 17 17 17 17 17 17 17
7 6 4 2 1 2 3 4 5 6 7 8 8 9 9 10 10 10 10 10 10 10 11 11 11 12 13 13 13 14 14 14 15 15 15 15 16 16 16 16 17 17 17 17 17 17 17 17 17
7 6 5 3 2 2 3 4 5 6 7 8 8 9 9 10 10 10 10 10 10 10 10 11 11 11 12 13 13 13 14 14 15 15 15 15 15 16 16 16 16 16 17 17 17 17 17 17 17
7 7 6 4 3 2 2 3 5 6 7 8 8 9 9 10 10 10 10 10 11 11 11 11 11 11 12 12 13 13 13 14 14 15 15 15 15 15 16 16 16 16 16 17 17 17 17 17 17
8 7 6 5 3 2 2 3 5 7 7 8 9 9 10 10 10 10 10 11 11 11 11 11 12 12 12 12 12 12 13 13 14 14 15 15 15 15 15 15 16 16 16 16 17 17 17 17 17
8 7 6 5 4 3 3 4 6 7 8 9 9 10 10 10 10 11 11 11 11 11 11 11 12 12 12 12 12 12 13 13 14 14 15 15 15 15 15 15 15 16 16 16 16 17 17 17 17